Location: Unspecified
(43.4354°N, 0.0000°E)
Time: 04:03:14
(UTC+00:00)

S-56A Canister/Altair - Pass Details

Date: 03 July 2019
Orbit: 632 x 2500 km, 38.9° (Epoch: 21 July)

Event Time Altitude Azimuth Distance (km) Brightness Sun altitude
Rises 17:48:57 0° 282° (WNW) 5,121 13.5 18.2°
Reaches altitude 10° 17:53:14 10° 273° (W) 3,794 13.1 17.5°
Maximum altitude 18:00:52 29° 218° (SW) 2,032 10.1 16.1°
Drops below altitude 10° 18:06:23 10° 159° (SSE) 2,677 10.0 15.2°
Sets 18:08:53 0° 148° (SSE) 3,421 10.4 14.7°
